Location: Bosmont
(49.7318°N, 3.8587°E)
Time: 23:30:14
(UTC+00:00)

Cosmos 1869 - Pass Details

Date: 08 February 2023
Orbit: 510 x 549 km, 82.5° (Epoch: 01 April)

Event Time Altitude Azimuth Distance (km) Brightness Sun altitude
Rises 18:09:12 0° 346° (NNW) 2,677 6.9 -13.0°
Reaches altitude 10° 18:11:22 10° 342° (NNW) 1,790 6.1 -13.3°
Maximum altitude 18:15:13 56° 264° (W) 642 4.0 -14.0°
Drops below altitude 10° 18:19:06 10° 186° (S) 1,801 6.1 -14.6°
Sets 18:21:17 0° 182° (S) 2,696 7.0 -14.9°
